Time,TemperatureF,DewpointF,PressureIn,WindDirection,WindDirectionDegrees,WindSpeedMPH,WindSpeedGustMPH,Humidity,HourlyPrecipIn,Conditions,Clouds,dailyrainin,SoftwareType,DateUTC
2013-04-16 00:04:00,75.0,74.1,29.79,South,176,11.0,17.2,97,0.00,,,-99.99,FreeWX 2.03,2013-04-16 05:04:00,
2013-04-16 00:09:00,74.8,73.6,29.79,South,178,12.0,16.3,96,0.00,,,-99.99,FreeWX 2.03,2013-04-16 05:09:00,
2013-04-16 00:14:00,74.8,73.6,29.79,South,180,10.0,17.2,96,0.00,,,-99.99,FreeWX 2.03,2013-04-16 05:14:00,
2013-04-16 00:19:00,74.7,73.0,29.79,South,177,10.0,16.8,95,0.00,,,-99.99,FreeWX 2.03,2013-04-16 05:19:00,
2013-04-16 00:24:00,74.7,73.0,29.79,South,177,10.0,18.1,95,0.00,,,-99.99,FreeWX 2.03,2013-04-16 05:24:00,
2013-04-16 00:29:00,74.5,72.9,29.76,South,177,10.0,17.7,95,0.00,,,-99.99,FreeWX 2.03,2013-04-16 05:29:00,
2013-04-16 00:34:00,74.5,72.9,29.76,South,176,10.0,17.2,95,0.00,,,-99.99,FreeWX 2.03,2013-04-16 05:34:00,
2013-04-16 00:39:00,74.3,72.7,29.76,South,177,10.0,16.3,95,0.00,,,-99.99,FreeWX 2.03,2013-04-16 05:39:00,
2013-04-16 00:44:00,74.5,72.9,29.76,South,178,11.0,19.5,95,0.00,,,-99.99,FreeWX 2.03,2013-04-16 05:44:00,
2013-04-16 00:49:00,74.5,72.9,29.76,South,179,12.0,18.6,95,0.00,,,-99.99,FreeWX 2.03,2013-04-16 05:49:00,
2013-04-16 00:54:00,74.3,72.7,29.76,South,178,13.0,17.2,95,0.00,,,-99.99,FreeWX 2.03,2013-04-16 05:54:00,
2013-04-16 00:59:00,74.3,72.7,29.79,South,179,12.0,18.1,95,0.00,,,-99.99,FreeWX 2.03,2013-04-16 05:59:00,
2013-04-16 01:04:00,74.3,72.7,29.79,South,178,12.0,18.6,95,0.00,,,-99.99,FreeWX 2.03,2013-04-16 06:04:00,
2013-04-16 01:09:00,74.5,72.9,29.79,South,176,11.0,17.7,95,0.00,,,-99.99,FreeWX 2.03,2013-04-16 06:09:00,
2013-04-16 01:19:00,74.5,72.7,29.79,South,179,10.0,15.2,94,0.00,,,-99.99,FreeWX 2.03,2013-04-16 06:19:00,
2013-04-16 01:24:00,74.7,72.9,29.79,South,177,9.0,15.9,94,0.00,,,-99.99,FreeWX 2.03,2013-04-16 06:24:00,
2013-04-16 01:29:00,74.8,73.0,29.76,South,177,9.0,17.2,94,0.00,,,-99.99,FreeWX 2.03,2013-04-16 06:29:00,
2013-04-16 01:34:00,74.8,73.0,29.76,South,175,9.0,12.5,94,0.00,,,-99.99,FreeWX 2.03,2013-04-16 06:34:00,
2013-04-16 01:39:00,74.7,72.5,29.76,South,176,8.0,13.0,93,0.00,,,-99.99,FreeWX 2.03,2013-04-16 06:39:00,
2013-04-16 01:44:00,74.5,72.3,29.76,South,179,8.0,13.9,93,0.00,,,-99.99,FreeWX 2.03,2013-04-16 06:44:00,
2013-04-16 01:55:00,74.3,72.5,29.76,South,177,8.0,13.0,94,0.00,,,-99.99,FreeWX 2.03,2013-04-16 06:55:00,
2013-04-16 02:00:00,74.5,72.7,29.76,South,176,8.0,14.8,94,0.00,,,-99.99,FreeWX 2.03,2013-04-16 07:00:00,
2013-04-16 02:05:00,74.5,72.7,29.76,South,177,8.0,13.0,94,0.00,,,-99.99,FreeWX 2.03,2013-04-16 07:05:00,
2013-04-16 02:10:00,74.5,72.7,29.76,South,176,8.0,13.0,94,0.00,,,-99.99,FreeWX 2.03,2013-04-16 07:10:00,
2013-04-16 02:15:00,74.5,72.7,29.76,South,175,9.0,15.4,94,0.00,,,-99.99,FreeWX 2.03,2013-04-16 07:15:00,
2013-04-16 02:20:00,74.5,72.7,29.76,South,175,8.0,13.9,94,0.00,,,-99.99,FreeWX 2.03,2013-04-16 07:20:00,
2013-04-16 02:25:00,74.5,72.9,29.76,South,173,8.0,14.3,95,0.00,,,-99.99,FreeWX 2.03,2013-04-16 07:25:00,
2013-04-16 02:30:00,74.5,72.9,29.76,South,175,8.0,12.1,95,0.00,,,-99.99,FreeWX 2.03,2013-04-16 07:30:00,
2013-04-16 02:35:00,74.5,72.9,29.76,South,176,8.0,13.0,95,0.00,,,-99.99,FreeWX 2.03,2013-04-16 07:35:00,
2013-04-16 02:40:00,74.3,72.7,29.76,South,175,8.0,13.0,95,0.00,,,-99.99,FreeWX 2.03,2013-04-16 07:40:00,
2013-04-16 02:45:00,74.3,72.7,29.76,South,175,9.0,14.3,95,0.00,,,-99.99,FreeWX 2.03,2013-04-16 07:45:00,
2013-04-16 02:50:00,74.3,72.7,29.76,South,172,8.0,14.3,95,0.00,,,-99.99,FreeWX 2.03,2013-04-16 07:50:00,
2013-04-16 02:55:00,74.3,73.0,29.76,South,170,8.0,12.1,96,0.00,,,-99.99,FreeWX 2.03,2013-04-16 07:55:00,
2013-04-16 03:00:00,74.3,73.0,29.76,South,171,8.0,13.0,96,0.00,,,-99.99,FreeWX 2.03,2013-04-16 08:00:00,
2013-04-16 03:05:00,74.3,73.0,29.76,South,172,8.0,12.5,96,0.00,,,-99.99,FreeWX 2.03,2013-04-16 08:05:00,
2013-04-16 03:10:00,74.3,73.0,29.76,South,174,7.0,11.0,96,0.00,,,-99.99,FreeWX 2.03,2013-04-16 08:10:00,
2013-04-16 03:15:00,74.3,73.0,29.76,South,176,7.0,12.5,96,0.00,,,-99.99,FreeWX 2.03,2013-04-16 08:15:00,
2013-04-16 03:20:00,74.5,73.2,29.76,South,176,8.0,12.1,96,0.00,,,-99.99,FreeWX 2.03,2013-04-16 08:20:00,
2013-04-16 03:25:00,74.5,73.2,29.74,South,175,7.0,13.0,96,0.00,,,-99.99,FreeWX 2.03,2013-04-16 08:25:00,
2013-04-16 03:30:00,74.7,73.8,29.74,South,173,7.0,12.1,97,0.00,,,-99.99,FreeWX 2.03,2013-04-16 08:30:00,
2013-04-16 03:35:00,74.7,73.8,29.74,South,173,8.0,12.1,97,0.00,,,-99.99,FreeWX 2.03,2013-04-16 08:35:00,
2013-04-16 03:40:00,74.5,73.6,29.74,South,171,8.0,11.6,97,0.00,,,-99.99,FreeWX 2.03,2013-04-16 08:40:00,
2013-04-16 03:45:00,74.3,73.4,29.74,South,170,7.0,9.2,97,0.00,,,-99.99,FreeWX 2.03,2013-04-16 08:45:00,
2013-04-16 03:50:00,74.3,73.4,29.74,South,169,6.0,9.6,97,0.00,,,-99.99,FreeWX 2.03,2013-04-16 08:50:00,
2013-04-16 03:55:00,74.1,73.2,29.74,SSE,167,6.0,8.7,97,0.00,,,-99.99,FreeWX 2.03,2013-04-16 08:55:00,
2013-04-16 04:00:00,74.1,73.2,29.74,SSE,165,6.0,9.2,97,0.00,,,-99.99,FreeWX 2.03,2013-04-16 09:00:00,
2013-04-16 04:05:00,74.1,73.2,29.74,SSE,167,6.0,10.5,97,0.00,,,-99.99,FreeWX 2.03,2013-04-16 09:05:00,
2013-04-16 04:10:00,74.1,73.2,29.74,South,171,6.0,10.5,97,0.00,,,-99.99,FreeWX 2.03,2013-04-16 09:10:00,
2013-04-16 04:15:00,74.1,73.2,29.74,South,172,6.0,10.5,97,0.00,,,-99.99,FreeWX 2.03,2013-04-16 09:15:00,
2013-04-16 04:20:00,74.1,73.2,29.74,South,171,6.0,9.6,97,0.00,,,-99.99,FreeWX 2.03,2013-04-16 09:20:00,
2013-04-16 04:25:00,74.1,73.2,29.74,South,169,7.0,9.6,97,0.00,,,-99.99,FreeWX 2.03,2013-04-16 09:25:00,
2013-04-16 04:30:00,74.1,73.6,29.74,South,170,6.0,11.2,98,0.00,,,-99.99,FreeWX 2.03,2013-04-16 09:30:00,
2013-04-16 04:35:00,74.1,73.6,29.74,South,171,6.0,8.7,98,0.00,,,-99.99,FreeWX 2.03,2013-04-16 09:35:00,
2013-04-16 04:40:00,74.3,73.8,29.74,SSE,168,6.0,8.7,98,0.00,,,-99.99,FreeWX 2.03,2013-04-16 09:40:00,
2013-04-16 04:45:00,74.1,73.6,29.74,SSE,163,6.0,10.5,98,0.00,,,-99.99,FreeWX 2.03,2013-04-16 09:45:00,
2013-04-16 04:50:00,74.1,73.6,29.74,SSE,162,7.0,10.5,98,0.00,,,-99.99,FreeWX 2.03,2013-04-16 09:50:00,
2013-04-16 04:55:00,74.1,73.6,29.74,SSE,164,7.0,11.2,98,0.00,,,-99.99,FreeWX 2.03,2013-04-16 09:55:00,
2013-04-16 05:00:00,74.3,73.8,29.74,SSE,168,7.0,10.1,98,0.00,,,-99.99,FreeWX 2.03,2013-04-16 10:00:00,
2013-04-16 05:05:00,74.3,73.8,29.74,South,171,7.0,11.2,98,0.00,,,-99.99,FreeWX 2.03,2013-04-16 10:05:00,
2013-04-16 05:10:00,74.3,73.8,29.74,South,171,7.0,10.5,98,0.00,,,-99.99,FreeWX 2.03,2013-04-16 10:10:00,
2013-04-16 05:15:00,74.3,73.8,29.74,South,169,7.0,11.6,98,0.00,,,-99.99,FreeWX 2.03,2013-04-16 10:15:00,
2013-04-16 05:20:00,74.1,73.6,29.74,SSE,168,7.0,11.6,98,0.00,,,-99.99,FreeWX 2.03,2013-04-16 10:20:00,
2013-04-16 05:25:00,74.3,73.8,29.74,South,172,7.0,13.4,98,0.00,,,-99.99,FreeWX 2.03,2013-04-16 10:25:00,
2013-04-16 05:30:00,74.1,73.6,29.74,South,174,7.0,11.2,98,0.00,,,-99.99,FreeWX 2.03,2013-04-16 10:30:00,
2013-04-16 05:35:00,74.1,73.6,29.74,South,173,7.0,12.1,98,0.00,,,-99.99,FreeWX 2.03,2013-04-16 10:35:00,
2013-04-16 05:45:00,73.9,73.4,29.76,South,174,7.0,11.6,98,0.00,,,-99.99,FreeWX 2.03,2013-04-16 10:45:00,
2013-04-16 05:50:00,74.1,73.8,29.76,South,173,7.0,11.6,99,0.00,,,-99.99,FreeWX 2.03,2013-04-16 10:50:00,
2013-04-16 05:55:00,74.1,73.8,29.76,South,171,7.0,11.6,99,0.00,,,-99.99,FreeWX 2.03,2013-04-16 10:55:00,
2013-04-16 06:00:00,74.1,73.8,29.76,SSE,167,7.0,11.6,99,0.00,,,-99.99,FreeWX 2.03,2013-04-16 11:00:00,
2013-04-16 06:05:00,74.1,73.8,29.76,SSE,163,7.0,11.6,99,0.00,,,-99.99,FreeWX 2.03,2013-04-16 11:05:00,
2013-04-16 06:10:00,74.1,73.8,29.76,SSE,162,7.0,10.5,99,0.00,,,-99.99,FreeWX 2.03,2013-04-16 11:10:00,
2013-04-16 06:15:00,74.1,73.8,29.76,SSE,165,7.0,10.1,99,0.00,,,-99.99,FreeWX 2.03,2013-04-16 11:15:00,
2013-04-16 06:20:00,73.9,73.6,29.76,South,170,6.0,10.1,99,0.00,,,-99.99,FreeWX 2.03,2013-04-16 11:20:00,
2013-04-16 06:25:00,73.9,73.6,29.76,South,171,6.0,10.5,99,0.00,,,-99.99,FreeWX 2.03,2013-04-16 11:25:00,
2013-04-16 06:30:00,73.9,73.6,29.76,SSE,168,7.0,10.1,99,0.00,,,-99.99,FreeWX 2.03,2013-04-16 11:30:00,
2013-04-16 06:35:00,73.9,73.6,29.76,SSE,168,7.0,11.2,99,0.00,,,-99.99,FreeWX 2.03,2013-04-16 11:35:00,
2013-04-16 06:40:00,73.9,73.6,29.76,SSE,168,7.0,11.6,99,0.00,,,-99.99,FreeWX 2.03,2013-04-16 11:40:00,
2013-04-16 06:45:00,73.9,73.6,29.76,SSE,167,6.0,9.6,99,0.00,,,-99.99,FreeWX 2.03,2013-04-16 11:45:00,
2013-04-16 06:50:00,73.8,73.4,29.76,SSE,164,6.0,9.6,99,0.00,,,-99.99,FreeWX 2.03,2013-04-16 11:50:00,
2013-04-16 06:55:00,73.9,73.6,29.79,SSE,159,7.0,10.1,99,0.00,,,-99.99,FreeWX 2.03,2013-04-16 11:55:00,
2013-04-16 07:00:00,73.9,73.6,29.79,SSE,157,7.0,12.1,99,0.00,,,-99.99,FreeWX 2.03,2013-04-16 12:00:00,
2013-04-16 07:05:00,73.9,73.6,29.79,SSE,159,7.0,11.6,99,0.00,,,-99.99,FreeWX 2.03,2013-04-16 12:05:00,
2013-04-16 07:10:00,73.9,73.6,29.76,SSE,156,8.0,12.5,99,0.00,,,-99.99,FreeWX 2.03,2013-04-16 12:10:00,
2013-04-16 07:15:00,73.9,73.6,29.76,SSE,152,8.0,13.0,99,0.00,,,-99.99,FreeWX 2.03,2013-04-16 12:15:00,
2013-04-16 07:20:00,73.9,73.6,29.76,SSE,153,8.0,12.1,99,0.00,,,-99.99,FreeWX 2.03,2013-04-16 12:20:00,
2013-04-16 07:25:00,73.9,73.6,29.79,SSE,154,8.0,13.0,99,0.00,,,-99.99,FreeWX 2.03,2013-04-16 12:25:00,
2013-04-16 07:30:00,73.9,73.6,29.79,SSE,153,8.0,12.1,99,0.00,,,-99.99,FreeWX 2.03,2013-04-16 12:30:00,
2013-04-16 07:35:00,73.9,73.6,29.79,SSE,155,8.0,11.6,99,0.00,,,-99.99,FreeWX 2.03,2013-04-16 12:35:00,
2013-04-16 07:40:00,73.9,73.6,29.79,SSE,160,7.0,10.5,99,0.00,,,-99.99,FreeWX 2.03,2013-04-16 12:40:00,
2013-04-16 07:45:00,74.1,73.8,29.79,SSE,165,6.0,10.5,99,0.00,,,-99.99,FreeWX 2.03,2013-04-16 12:45:00,
2013-04-16 07:50:00,74.1,73.8,29.79,SSE,165,7.0,11.2,99,0.00,,,-99.99,FreeWX 2.03,2013-04-16 12:50:00,
2013-04-16 07:55:00,74.3,73.9,29.79,SSE,163,7.0,11.2,99,0.00,,,-99.99,FreeWX 2.03,2013-04-16 12:55:00,
2013-04-16 08:00:00,74.5,74.1,29.79,SSE,161,6.0,10.5,99,0.00,,,-99.99,FreeWX 2.03,2013-04-16 13:00:00,
2013-04-16 08:05:00,74.7,74.3,29.79,SSE,162,6.0,11.0,99,0.00,,,-99.99,FreeWX 2.03,2013-04-16 13:05:00,
2013-04-16 08:10:00,74.7,74.3,29.79,SSE,161,7.0,11.6,99,0.00,,,-99.99,FreeWX 2.03,2013-04-16 13:10:00,
2013-04-16 08:15:00,74.8,74.5,29.79,SSE,161,7.0,12.1,99,0.00,,,-99.99,FreeWX 2.03,2013-04-16 13:15:00,
2013-04-16 08:20:00,75.2,74.7,29.79,SSE,163,7.0,13.4,98,0.00,,,-99.99,FreeWX 2.03,2013-04-16 13:20:00,
2013-04-16 08:25:00,75.4,74.8,29.82,SSE,163,7.0,12.5,98,0.00,,,-99.99,FreeWX 2.03,2013-04-16 13:25:00,
2013-04-16 08:30:00,75.4,74.8,29.82,SSE,165,7.0,13.4,98,0.00,,,-99.99,FreeWX 2.03,2013-04-16 13:30:00,
2013-04-16 08:35:00,75.6,75.0,29.82,SSE,162,7.0,13.4,98,0.00,,,-99.99,FreeWX 2.03,2013-04-16 13:35:00,
2013-04-16 08:40:00,75.7,75.2,29.82,SSE,158,7.0,13.0,98,0.00,,,-99.99,FreeWX 2.03,2013-04-16 13:40:00,
2013-04-16 08:45:00,75.9,75.4,29.82,SSE,156,7.0,11.6,98,0.00,,,-99.99,FreeWX 2.03,2013-04-16 13:45:00,
2013-04-16 08:50:00,75.9,75.4,29.82,SSE,155,7.0,12.1,98,0.00,,,-99.99,FreeWX 2.03,2013-04-16 13:50:00,
2013-04-16 08:55:00,75.7,74.8,29.82,SSE,152,9.0,15.2,97,0.00,,,-99.99,FreeWX 2.03,2013-04-16 13:55:00,
2013-04-16 09:00:00,75.7,74.8,29.82,SSE,151,9.0,12.5,97,0.00,,,-99.99,FreeWX 2.03,2013-04-16 14:00:00,
2013-04-16 09:05:00,75.9,75.0,29.82,SSE,151,8.0,11.2,97,0.00,,,-99.99,FreeWX 2.03,2013-04-16 14:05:00,
2013-04-16 09:10:00,76.1,75.2,29.82,SSE,150,8.0,13.0,97,0.00,,,-99.99,FreeWX 2.03,2013-04-16 14:10:00,
2013-04-16 09:15:00,76.3,75.4,29.82,SSE,147,8.0,12.5,97,0.00,,,-99.99,FreeWX 2.03,2013-04-16 14:15:00,
2013-04-16 09:20:00,76.5,75.6,29.82,SE,143,8.0,12.5,97,0.00,,,-99.99,FreeWX 2.03,2013-04-16 14:20:00,
2013-04-16 09:25:00,76.5,75.2,29.82,SE,144,7.0,12.5,96,0.00,,,-99.99,FreeWX 2.03,2013-04-16 14:25:00,
2013-04-16 09:30:00,76.6,75.4,29.82,SE,142,8.0,12.5,96,0.00,,,-99.99,FreeWX 2.03,2013-04-16 14:30:00,
2013-04-16 09:35:00,76.6,75.4,29.82,SE,134,8.0,11.6,96,0.00,,,-99.99,FreeWX 2.03,2013-04-16 14:35:00,
2013-04-16 09:40:00,76.6,75.4,29.82,SE,134,8.0,11.2,96,0.00,,,-99.99,FreeWX 2.03,2013-04-16 14:40:00,
2013-04-16 09:45:00,76.6,75.4,29.82,SE,138,8.0,13.0,96,0.00,,,-99.99,FreeWX 2.03,2013-04-16 14:45:00,
2013-04-16 09:50:00,76.8,75.2,29.82,SE,138,8.0,12.5,95,0.00,,,-99.99,FreeWX 2.03,2013-04-16 14:50:00,
2013-04-16 09:55:00,77.0,75.4,29.82,SE,133,8.0,13.4,95,0.00,,,-99.99,FreeWX 2.03,2013-04-16 14:55:00,
2013-04-16 10:00:00,77.4,75.7,29.82,SE,133,8.0,12.1,95,0.00,,,-99.99,FreeWX 2.03,2013-04-16 15:00:00,
2013-04-16 10:05:00,77.7,76.1,29.82,SE,138,9.0,16.3,95,0.00,,,-99.99,FreeWX 2.03,2013-04-16 15:05:00,
2013-04-16 10:10:00,77.9,76.1,29.82,SE,138,10.0,16.8,94,0.00,,,-99.99,FreeWX 2.03,2013-04-16 15:10:00,
2013-04-16 10:15:00,78.1,76.3,29.82,SE,139,9.0,15.2,94,0.00,,,-99.99,FreeWX 2.03,2013-04-16 15:15:00,
2013-04-16 10:20:00,78.1,76.3,29.82,SE,137,8.0,14.3,94,0.00,,,-99.99,FreeWX 2.03,2013-04-16 15:20:00,
2013-04-16 10:25:00,78.1,75.9,29.85,SE,133,9.0,15.2,93,0.00,,,-99.99,FreeWX 2.03,2013-04-16 15:25:00,
2013-04-16 10:30:00,78.1,75.9,29.85,SE,136,10.0,15.9,93,0.00,,,-99.99,FreeWX 2.03,2013-04-16 15:30:00,
2013-04-16 10:35:00,77.9,75.7,29.85,SE,139,10.0,14.8,93,0.00,,,-99.99,FreeWX 2.03,2013-04-16 15:35:00,
2013-04-16 10:40:00,77.7,75.2,29.82,SE,139,9.0,17.7,92,0.00,,,-99.99,FreeWX 2.03,2013-04-16 15:40:00,
2013-04-16 10:45:00,77.7,75.2,29.82,SE,138,10.0,15.4,92,0.00,,,-99.99,FreeWX 2.03,2013-04-16 15:45:00,
2013-04-16 10:50:00,77.7,75.2,29.82,SE,136,10.0,15.2,92,0.00,,,-99.99,FreeWX 2.03,2013-04-16 15:50:00,
2013-04-16 10:55:00,77.9,75.4,29.85,SE,141,9.0,13.9,92,0.00,,,-99.99,FreeWX 2.03,2013-04-16 15:55:00,
2013-04-16 11:00:00,78.3,75.7,29.85,SE,142,9.0,13.9,92,0.00,,,-99.99,FreeWX 2.03,2013-04-16 16:00:00,
2013-04-16 11:05:00,78.4,75.9,29.85,SE,139,9.0,15.2,92,0.00,,,-99.99,FreeWX 2.03,2013-04-16 16:05:00,
2013-04-16 11:10:00,78.4,75.9,29.85,SE,141,9.0,15.2,92,0.00,,,-99.99,FreeWX 2.03,2013-04-16 16:10:00,
2013-04-16 11:15:00,78.6,75.7,29.85,SE,141,8.0,13.4,91,0.00,,,-99.99,FreeWX 2.03,2013-04-16 16:15:00,
2013-04-16 11:20:00,78.6,75.7,29.85,SE,134,8.0,14.3,91,0.00,,,-99.99,FreeWX 2.03,2013-04-16 16:20:00,
2013-04-16 11:25:00,79.0,76.1,29.85,SE,128,9.0,13.9,91,0.00,,,-99.99,FreeWX 2.03,2013-04-16 16:25:00,
2013-04-16 11:30:00,79.3,76.1,29.85,SE,131,10.0,16.3,90,0.00,,,-99.99,FreeWX 2.03,2013-04-16 16:30:00,
2013-04-16 11:35:00,79.5,76.3,29.85,SE,134,10.0,15.9,90,0.00,,,-99.99,FreeWX 2.03,2013-04-16 16:35:00,
2013-04-16 11:41:00,80.1,76.8,29.85,SE,135,10.0,15.2,90,0.00,,,-99.99,FreeWX 2.03,2013-04-16 16:41:00,
2013-04-16 11:46:00,80.2,76.6,29.85,SE,136,12.0,20.1,89,0.00,,,-99.99,FreeWX 2.03,2013-04-16 16:46:00,
2013-04-16 11:51:00,80.1,76.5,29.85,SE,137,13.0,19.5,89,0.00,,,-99.99,FreeWX 2.03,2013-04-16 16:51:00,
2013-04-16 11:56:00,80.2,76.3,29.85,SE,140,13.0,19.9,88,0.00,,,-99.99,FreeWX 2.03,2013-04-16 16:56:00,
2013-04-16 12:01:00,80.4,76.5,29.85,SE,140,13.0,18.1,88,0.00,,,-99.99,FreeWX 2.03,2013-04-16 17:01:00,
2013-04-16 12:06:00,80.4,76.5,29.85,SE,140,10.0,13.4,88,0.00,,,-99.99,FreeWX 2.03,2013-04-16 17:06:00,
2013-04-16 12:11:00,80.4,76.5,29.85,SE,139,9.0,15.4,88,0.00,,,-99.99,FreeWX 2.03,2013-04-16 17:11:00,
2013-04-16 12:16:00,80.2,75.9,29.85,SE,137,10.0,15.4,87,0.00,,,-99.99,FreeWX 2.03,2013-04-16 17:16:00,
2013-04-16 12:21:00,79.9,75.7,29.85,SE,138,10.0,15.9,87,0.00,,,-99.99,FreeWX 2.03,2013-04-16 17:21:00,
2013-04-16 12:26:00,79.7,75.6,29.85,SE,142,10.0,15.2,87,0.00,,,-99.99,FreeWX 2.03,2013-04-16 17:26:00,
2013-04-16 12:31:00,79.5,75.4,29.85,SE,145,9.0,16.3,87,0.00,,,-99.99,FreeWX 2.03,2013-04-16 17:31:00,
2013-04-16 12:36:00,79.3,75.2,29.85,SE,146,10.0,16.3,87,0.00,,,-99.99,FreeWX 2.03,2013-04-16 17:36:00,
2013-04-16 12:41:00,79.0,74.8,29.85,SE,144,10.0,14.3,87,0.00,,,-99.99,FreeWX 2.03,2013-04-16 17:41:00,
2013-04-16 12:46:00,78.8,75.0,29.85,SE,141,10.0,16.3,88,0.00,,,-99.99,FreeWX 2.03,2013-04-16 17:46:00,
2013-04-16 12:51:00,79.0,75.0,29.85,SSE,147,10.0,15.4,88,0.00,,,-99.99,FreeWX 2.03,2013-04-16 17:51:00,
2013-04-16 12:56:00,79.2,75.2,29.82,SSE,152,9.0,13.9,88,0.00,,,-99.99,FreeWX 2.03,2013-04-16 17:56:00,
2013-04-16 13:01:00,79.2,75.2,29.82,SSE,150,9.0,14.8,88,0.00,,,-99.99,FreeWX 2.03,2013-04-16 18:01:00,
2013-04-16 13:06:00,79.3,75.7,29.82,SE,145,10.0,17.7,89,0.00,,,-99.99,FreeWX 2.03,2013-04-16 18:06:00,
2013-04-16 13:11:00,79.3,75.7,29.82,SE,143,9.0,14.8,89,0.00,,,-99.99,FreeWX 2.03,2013-04-16 18:11:00,
2013-04-16 13:16:00,79.5,75.9,29.82,SE,145,9.0,15.4,89,0.00,,,-99.99,FreeWX 2.03,2013-04-16 18:16:00,
2013-04-16 13:21:00,79.9,76.3,29.82,SE,137,10.0,14.3,89,0.00,,,-99.99,FreeWX 2.03,2013-04-16 18:21:00,
2013-04-16 13:26:00,80.1,76.1,29.82,SE,136,10.0,18.1,88,0.00,,,-99.99,FreeWX 2.03,2013-04-16 18:26:00,
2013-04-16 13:31:00,80.1,76.1,29.82,SE,144,10.0,17.7,88,0.00,,,-99.99,FreeWX 2.03,2013-04-16 18:31:00,
2013-04-16 13:36:00,80.1,76.1,29.82,SE,141,9.0,15.4,88,0.00,,,-99.99,FreeWX 2.03,2013-04-16 18:36:00,
2013-04-16 13:41:00,80.6,76.6,29.82,SE,141,9.0,15.4,88,0.00,,,-99.99,FreeWX 2.03,2013-04-16 18:41:00,
2013-04-16 13:46:00,81.0,76.6,29.82,SE,138,9.0,15.4,87,0.00,,,-99.99,FreeWX 2.03,2013-04-16 18:46:00,
2013-04-16 13:51:00,81.0,76.6,29.82,SE,139,10.0,16.8,87,0.00,,,-99.99,FreeWX 2.03,2013-04-16 18:51:00,
2013-04-16 13:56:00,81.1,76.5,29.82,SSE,148,9.0,15.4,86,0.00,,,-99.99,FreeWX 2.03,2013-04-16 18:56:00,
2013-04-16 14:01:00,81.1,76.5,29.82,SE,144,9.0,14.3,86,0.00,,,-99.99,FreeWX 2.03,2013-04-16 19:01:00,
2013-04-16 14:06:00,81.1,76.5,29.82,SE,134,10.0,14.8,86,0.00,,,-99.99,FreeWX 2.03,2013-04-16 19:06:00,
2013-04-16 14:11:00,81.0,75.9,29.82,SE,134,11.0,20.6,85,0.00,,,-99.99,FreeWX 2.03,2013-04-16 19:11:00,
2013-04-16 14:16:00,80.6,75.7,29.82,SE,135,13.0,18.6,85,0.00,,,-99.99,FreeWX 2.03,2013-04-16 19:16:00,
2013-04-16 14:21:00,80.1,75.2,29.82,SE,136,14.0,20.1,85,0.00,,,-99.99,FreeWX 2.03,2013-04-16 19:21:00,
2013-04-16 14:26:00,79.9,75.4,29.82,SE,135,14.0,19.0,86,0.00,,,-99.99,FreeWX 2.03,2013-04-16 19:26:00,
2013-04-16 14:31:00,79.7,75.2,29.82,SE,131,12.0,17.7,86,0.00,,,-99.99,FreeWX 2.03,2013-04-16 19:31:00,
2013-04-16 14:36:00,79.5,75.4,29.82,SE,130,12.0,19.9,87,0.00,,,-99.99,FreeWX 2.03,2013-04-16 19:36:00,
2013-04-16 14:41:00,79.3,75.2,29.79,SE,134,12.0,16.8,87,0.00,,,-99.99,FreeWX 2.03,2013-04-16 19:41:00,
2013-04-16 14:46:00,79.2,75.2,29.79,SE,137,11.0,18.6,88,0.00,,,-99.99,FreeWX 2.03,2013-04-16 19:46:00,
2013-04-16 14:56:00,79.0,75.0,29.79,SE,135,10.0,19.0,88,0.00,,,-99.99,FreeWX 2.03,2013-04-16 19:56:00,
2013-04-16 15:01:00,79.0,75.4,29.79,SE,134,11.0,19.0,89,0.00,,,-99.99,FreeWX 2.03,2013-04-16 20:01:00,
2013-04-16 15:06:00,78.8,75.2,29.79,SE,138,11.0,15.4,89,0.00,,,-99.99,FreeWX 2.03,2013-04-16 20:06:00,
2013-04-16 15:11:00,78.8,75.2,29.79,SE,137,11.0,19.0,89,0.00,,,-99.99,FreeWX 2.03,2013-04-16 20:11:00,
2013-04-16 15:16:00,78.6,75.0,29.79,SE,137,12.0,19.0,89,0.00,,,-99.99,FreeWX 2.03,2013-04-16 20:16:00,
2013-04-16 15:21:00,78.3,75.0,29.79,SE,137,12.0,19.9,90,0.00,,,-99.99,FreeWX 2.03,2013-04-16 20:21:00,
2013-04-16 15:26:00,78.3,75.0,29.76,SE,134,11.0,17.7,90,0.00,,,-99.99,FreeWX 2.03,2013-04-16 20:26:00,
2013-04-16 15:31:00,78.3,75.0,29.76,SE,135,10.0,18.6,90,0.00,,,-99.99,FreeWX 2.03,2013-04-16 20:31:00,
2013-04-16 15:36:00,78.3,75.4,29.76,SE,135,10.0,18.6,91,0.00,,,-99.99,FreeWX 2.03,2013-04-16 20:36:00,
2013-04-16 15:41:00,78.3,75.4,29.79,SE,131,10.0,14.3,91,0.00,,,-99.99,FreeWX 2.03,2013-04-16 20:41:00,
2013-04-16 15:46:00,78.1,75.2,29.79,SE,132,9.0,16.8,91,0.00,,,-99.99,FreeWX 2.03,2013-04-16 20:46:00,
2013-04-16 15:51:00,78.1,75.2,29.79,SE,135,9.0,13.4,91,0.00,,,-99.99,FreeWX 2.03,2013-04-16 20:51:00,
2013-04-16 15:56:00,78.1,75.6,29.79,SE,134,9.0,14.8,92,0.00,,,-99.99,FreeWX 2.03,2013-04-16 20:56:00,
2013-04-16 16:01:00,78.3,75.7,29.79,SE,135,9.0,14.8,92,0.00,,,-99.99,FreeWX 2.03,2013-04-16 21:01:00,
2013-04-16 16:06:00,78.3,75.7,29.79,SE,133,9.0,14.8,92,0.00,,,-99.99,FreeWX 2.03,2013-04-16 21:06:00,
2013-04-16 16:12:00,77.9,75.4,29.79,SE,134,9.0,15.9,92,0.00,,,-99.99,FreeWX 2.03,2013-04-16 21:12:00,
2013-04-16 16:17:00,77.7,75.2,29.79,SE,132,8.0,15.4,92,0.00,,,-99.99,FreeWX 2.03,2013-04-16 21:17:00,
2013-04-16 16:22:00,77.7,75.2,29.79,SE,131,8.0,12.5,92,0.00,,,-99.99,FreeWX 2.03,2013-04-16 21:22:00,
2013-04-16 16:27:00,77.7,75.2,29.79,SE,134,9.0,17.2,92,0.00,,,-99.99,FreeWX 2.03,2013-04-16 21:27:00,
2013-04-16 16:32:00,77.5,75.0,29.79,SE,135,12.0,17.7,92,0.00,,,-99.99,FreeWX 2.03,2013-04-16 21:32:00,
2013-04-16 16:37:00,77.4,74.8,29.79,SE,133,12.0,17.2,92,0.00,,,-99.99,FreeWX 2.03,2013-04-16 21:37:00,
2013-04-16 16:42:00,77.2,75.0,29.76,SE,135,11.0,18.1,93,0.00,,,-99.99,FreeWX 2.03,2013-04-16 21:42:00,
2013-04-16 16:47:00,77.0,74.8,29.76,SE,143,10.0,17.2,93,0.00,,,-99.99,FreeWX 2.03,2013-04-16 21:47:00,
2013-04-16 16:52:00,77.0,74.8,29.76,SE,140,11.0,20.1,93,0.00,,,-99.99,FreeWX 2.03,2013-04-16 21:52:00,
2013-04-16 16:57:00,77.0,75.2,29.76,SE,134,12.0,17.7,94,0.00,,,-99.99,FreeWX 2.03,2013-04-16 21:57:00,
2013-04-16 17:02:00,76.8,75.0,29.76,SE,129,10.0,13.9,94,0.00,,,-99.99,FreeWX 2.03,2013-04-16 22:02:00,
2013-04-16 17:07:00,77.0,75.2,29.76,SE,124,7.0,10.5,94,0.00,,,-99.99,FreeWX 2.03,2013-04-16 22:07:00,
2013-04-16 17:12:00,77.0,75.4,29.79,ESE,120,7.0,16.8,95,0.00,,,-99.99,FreeWX 2.03,2013-04-16 22:12:00,
2013-04-16 17:17:00,77.2,75.6,29.79,ESE,122,8.0,11.2,95,0.00,,,-99.99,FreeWX 2.03,2013-04-16 22:17:00,
2013-04-16 17:22:00,77.0,75.4,29.79,SE,126,7.0,12.5,95,0.00,,,-99.99,FreeWX 2.03,2013-04-16 22:22:00,
2013-04-16 17:27:00,77.0,75.4,29.79,SE,125,8.0,14.8,95,0.00,,,-99.99,FreeWX 2.03,2013-04-16 22:27:00,
2013-04-16 17:32:00,76.8,75.2,29.79,SE,124,9.0,13.9,95,0.00,,,-99.99,FreeWX 2.03,2013-04-16 22:32:00,
2013-04-16 17:37:00,76.8,75.2,29.79,ESE,120,8.0,12.5,95,0.00,,,-99.99,FreeWX 2.03,2013-04-16 22:37:00,
2013-04-16 17:42:00,76.8,75.6,29.79,ESE,115,10.0,16.3,96,0.00,,,-99.99,FreeWX 2.03,2013-04-16 22:42:00,
2013-04-16 17:47:00,76.6,75.4,29.79,ESE,118,10.0,16.8,96,0.00,,,-99.99,FreeWX 2.03,2013-04-16 22:47:00,
2013-04-16 17:52:00,76.5,75.2,29.79,ESE,123,10.0,16.8,96,0.00,,,-99.99,FreeWX 2.03,2013-04-16 22:52:00,
2013-04-16 17:57:00,76.5,75.2,29.79,SE,125,9.0,13.4,96,0.00,,,-99.99,FreeWX 2.03,2013-04-16 22:57:00,
2013-04-16 18:02:00,76.3,75.0,29.79,ESE,122,9.0,15.2,96,0.00,,,-99.99,FreeWX 2.03,2013-04-16 23:02:00,
2013-04-16 18:07:00,76.3,75.0,29.79,SE,124,9.0,13.4,96,0.00,,,-99.99,FreeWX 2.03,2013-04-16 23:07:00,
2013-04-16 18:12:00,76.3,75.0,29.79,ESE,123,9.0,16.3,96,0.00,,,-99.99,FreeWX 2.03,2013-04-16 23:12:00,
2013-04-16 18:17:00,76.3,75.4,29.79,ESE,122,9.0,15.4,97,0.00,,,-99.99,FreeWX 2.03,2013-04-16 23:17:00,
2013-04-16 18:22:00,76.1,75.2,29.79,SE,131,9.0,14.8,97,0.00,,,-99.99,FreeWX 2.03,2013-04-16 23:22:00,
2013-04-16 18:27:00,75.9,75.0,29.79,SE,137,10.0,19.5,97,0.00,,,-99.99,FreeWX 2.03,2013-04-16 23:27:00,
2013-04-16 18:32:00,75.7,74.8,29.79,SE,137,11.0,19.5,97,0.00,,,-99.99,FreeWX 2.03,2013-04-16 23:32:00,
2013-04-16 18:37:00,75.6,74.7,29.79,SE,138,11.0,15.4,97,0.00,,,-99.99,FreeWX 2.03,2013-04-16 23:37:00,
2013-04-16 18:42:00,75.6,74.7,29.79,SE,139,9.0,14.3,97,0.00,,,-99.99,FreeWX 2.03,2013-04-16 23:42:00,
2013-04-16 18:47:00,75.6,74.7,29.79,SE,139,8.0,16.3,97,0.00,,,-99.99,FreeWX 2.03,2013-04-16 23:47:00,
2013-04-16 18:52:00,75.4,74.5,29.79,SE,139,9.0,13.9,97,0.00,,,-99.99,FreeWX 2.03,2013-04-16 23:52:00,
2013-04-16 18:57:00,75.2,74.3,29.79,SE,136,9.0,13.4,97,0.00,,,-99.99,FreeWX 2.03,2013-04-16 23:57:00,
2013-04-16 19:02:00,75.2,74.7,29.79,SE,131,8.0,11.0,98,0.00,,,-99.99,FreeWX 2.03,2013-04-17 00:02:00,
2013-04-16 19:07:00,75.4,74.8,29.79,SE,130,8.0,13.9,98,0.00,,,-99.99,FreeWX 2.03,2013-04-17 00:07:00,
2013-04-16 19:12:00,75.4,74.8,29.79,SE,134,9.0,15.2,98,0.00,,,-99.99,FreeWX 2.03,2013-04-17 00:12:00,
2013-04-16 19:17:00,75.2,74.7,29.79,SE,136,10.0,17.2,98,0.00,,,-99.99,FreeWX 2.03,2013-04-17 00:17:00,
2013-04-16 19:22:00,75.2,74.7,29.79,SE,138,10.0,16.8,98,0.00,,,-99.99,FreeWX 2.03,2013-04-17 00:22:00,
2013-04-16 19:27:00,75.2,74.7,29.76,SE,138,11.0,17.2,98,0.00,,,-99.99,FreeWX 2.03,2013-04-17 00:27:00,
2013-04-16 19:32:00,75.4,74.8,29.76,SE,139,12.0,17.7,98,0.00,,,-99.99,FreeWX 2.03,2013-04-17 00:32:00,
2013-04-16 19:37:00,75.4,74.8,29.76,SE,139,12.0,19.9,98,0.00,,,-99.99,FreeWX 2.03,2013-04-17 00:37:00,
2013-04-16 19:42:00,75.4,74.8,29.76,SE,139,12.0,20.1,98,0.00,,,-99.99,FreeWX 2.03,2013-04-17 00:42:00,
2013-04-16 19:47:00,75.4,75.0,29.76,SE,142,13.0,19.5,99,0.00,,,-99.99,FreeWX 2.03,2013-04-17 00:47:00,
2013-04-16 19:52:00,75.6,75.2,29.76,SE,142,13.0,21.0,99,0.00,,,-99.99,FreeWX 2.03,2013-04-17 00:52:00,
2013-04-16 19:57:00,75.6,75.2,29.76,SE,141,14.0,23.3,99,0.00,,,-99.99,FreeWX 2.03,2013-04-17 00:57:00,
2013-04-16 20:02:00,75.6,75.2,29.76,SE,145,14.0,22.8,99,0.00,,,-99.99,FreeWX 2.03,2013-04-17 01:02:00,
2013-04-16 20:07:00,75.4,75.0,29.76,SSE,151,14.0,21.9,99,0.00,,,-99.99,FreeWX 2.03,2013-04-17 01:07:00,
2013-04-16 20:12:00,75.6,75.2,29.76,SSE,155,14.0,22.4,99,0.00,,,-99.99,FreeWX 2.03,2013-04-17 01:12:00,
2013-04-16 20:17:00,75.6,75.2,29.76,SSE,153,15.0,25.7,99,0.00,,,-99.99,FreeWX 2.03,2013-04-17 01:17:00,
2013-04-16 20:22:00,75.6,75.2,29.76,SSE,153,16.0,26.6,99,0.00,,,-99.99,FreeWX 2.03,2013-04-17 01:22:00,
2013-04-16 20:27:00,75.6,75.2,29.76,SSE,155,16.0,25.3,99,0.00,,,-99.99,FreeWX 2.03,2013-04-17 01:27:00,
2013-04-16 20:32:00,75.6,75.2,29.76,SSE,157,15.0,21.0,99,0.00,,,-99.99,FreeWX 2.03,2013-04-17 01:32:00,
2013-04-16 20:37:00,75.9,75.6,29.76,SSE,159,15.0,27.1,99,0.00,,,-99.99,FreeWX 2.03,2013-04-17 01:37:00,
2013-04-16 20:42:00,75.9,75.6,29.76,SSE,158,15.0,23.7,99,0.00,,,-99.99,FreeWX 2.03,2013-04-17 01:42:00,
2013-04-16 20:47:00,75.9,75.6,29.76,SSE,158,14.0,21.9,99,0.00,,,-99.99,FreeWX 2.03,2013-04-17 01:47:00,
2013-04-16 20:52:00,75.9,75.6,29.76,SSE,162,11.0,15.2,99,0.00,,,-99.99,FreeWX 2.03,2013-04-17 01:52:00,
2013-04-16 20:57:00,76.1,75.7,29.79,SSE,165,10.0,14.8,99,0.00,,,-99.99,FreeWX 2.03,2013-04-17 01:57:00,
2013-04-16 21:02:00,76.3,75.9,29.79,SSE,165,10.0,19.0,99,0.00,,,-99.99,FreeWX 2.03,2013-04-17 02:02:00,
2013-04-16 21:07:00,76.3,75.9,29.79,SSE,165,10.0,14.8,99,0.00,,,-99.99,FreeWX 2.03,2013-04-17 02:07:00,
2013-04-16 21:12:00,76.3,75.9,29.79,SSE,166,10.0,17.2,99,0.00,,,-99.99,FreeWX 2.03,2013-04-17 02:12:00,
2013-04-16 21:59:00,76.1,75.6,29.82,SSE,160,9.0,13.4,98,0.00,,,-99.99,FreeWX 2.03,2013-04-17 02:59:00,
2013-04-16 22:04:00,75.9,75.4,29.82,SSE,161,9.0,13.0,98,0.00,,,-99.99,FreeWX 2.03,2013-04-17 03:04:00,
2013-04-16 22:09:00,76.1,75.6,29.82,SSE,166,8.0,11.6,98,0.00,,,-99.99,FreeWX 2.03,2013-04-17 03:09:00,
2013-04-16 22:20:00,76.1,75.6,29.82,SSE,167,7.0,11.2,98,0.00,,,-99.99,FreeWX 2.03,2013-04-17 03:20:00,
2013-04-16 22:25:00,76.1,75.6,29.82,SSE,158,7.0,10.5,98,0.00,,,-99.99,FreeWX 2.03,2013-04-17 03:25:00,
2013-04-16 22:30:00,75.9,75.4,29.82,SSE,158,6.0,9.2,98,0.00,,,-99.99,FreeWX 2.03,2013-04-17 03:30:00,
2013-04-16 22:35:00,75.9,75.4,29.82,SSE,163,6.0,10.1,98,0.00,,,-99.99,FreeWX 2.03,2013-04-17 03:35:00,
2013-04-16 22:40:00,75.9,75.4,29.82,SSE,167,7.0,11.6,98,0.00,,,-99.99,FreeWX 2.03,2013-04-17 03:40:00,
2013-04-16 22:45:00,75.9,75.4,29.82,South,171,8.0,13.9,98,0.00,,,-99.99,FreeWX 2.03,2013-04-17 03:45:00,
2013-04-16 22:50:00,75.9,75.4,29.82,South,172,8.0,13.4,98,0.00,,,-99.99,FreeWX 2.03,2013-04-17 03:50:00,
2013-04-16 22:55:00,75.9,75.4,29.85,South,174,8.0,13.0,98,0.00,,,-99.99,FreeWX 2.03,2013-04-17 03:55:00,
2013-04-16 23:00:00,76.1,75.6,29.85,South,175,7.0,12.5,98,0.00,,,-99.99,FreeWX 2.03,2013-04-17 04:00:00,
2013-04-16 23:05:00,76.1,75.6,29.85,South,173,7.0,11.0,98,0.00,,,-99.99,FreeWX 2.03,2013-04-17 04:05:00,
2013-04-16 23:10:00,76.1,75.6,29.85,South,175,7.0,11.6,98,0.00,,,-99.99,FreeWX 2.03,2013-04-17 04:10:00,
2013-04-16 23:15:00,76.1,75.6,29.85,South,179,8.0,11.6,98,0.00,,,-99.99,FreeWX 2.03,2013-04-17 04:15:00,
2013-04-16 23:20:00,76.3,75.7,29.85,South,178,7.0,12.5,98,0.00,,,-99.99,FreeWX 2.03,2013-04-17 04:20:00,
2013-04-16 23:25:00,76.3,75.7,29.82,South,178,7.0,11.2,98,0.00,,,-99.99,FreeWX 2.03,2013-04-17 04:25:00,
2013-04-16 23:30:00,76.3,75.7,29.82,South,179,7.0,11.6,98,0.00,,,-99.99,FreeWX 2.03,2013-04-17 04:30:00,
2013-04-16 23:35:00,76.3,75.7,29.82,South,178,8.0,12.5,98,0.00,,,-99.99,FreeWX 2.03,2013-04-17 04:35:00,
2013-04-16 23:40:00,76.1,75.6,29.82,South,178,8.0,12.5,98,0.00,,,-99.99,FreeWX 2.03,2013-04-17 04:40:00,
2013-04-16 23:45:00,76.1,75.6,29.82,South,180,9.0,14.3,98,0.00,,,-99.99,FreeWX 2.03,2013-04-17 04:45:00,
2013-04-16 23:50:00,76.1,75.6,29.82,South,178,8.0,13.0,98,0.00,,,-99.99,FreeWX 2.03,2013-04-17 04:50:00,
2013-04-16 23:55:00,75.9,75.4,29.82,South,177,8.0,12.5,98,0.00,,,-99.99,FreeWX 2.03,2013-04-17 04:55:00,